Weather History for Madison, WI

Change the Weather History Date:

Sunday, August 4, 2013

  Actual Average Record
Temperature  
Mean Temperature 64 °F 70 °F  
Max Temperature 76 °F 81 °F 99 °F (1947)
Min Temperature 52 °F 60 °F 41 °F (1972)
Degree Days  
Heating Degree Days 1 1  
Month to date heating degree days 1 1  
Since 1 June heating degree days 71 71  
Since 1 July heating degree days 19 11  
Cooling Degree Days 0 6  
Month to date cooling degree days 11 24  
Year to date cooling degree days 432 380  
Since 1 June cooling degree days 379 350  
Growing Degree Days 14 (Base 50)    
Moisture  
Dew Point 54 °F    
Average Humidity 71    
Maximum Humidity 96    
Minimum Humidity 46    
Precipitation  
Precipitation 0.00 in 0.14 in 2.52 in (1916)
Month to date precipitation 0.12 0.55  
Year to date precipitation 35.07 21.10  
Snow  
Snow 0.00 in 0.00 in 0.00 in ()
Month to date snowfall 0.0 0.0  
Since 1 June snowfall 0.0 0.0  
Since 1 July snowfall 0.0 0.0  
Snow Depth 0.00 in    
Sea Level Pressure  
Sea Level Pressure 30.17 in    
Wind  
Wind Speed 4 mph (ENE)    
Max Wind Speed 13 mph    
Max Gust Speed 15 mph    
Visibility 10 miles    
Events      
T = Trace of Precipitation, MM = Missing Value Source: NWS Daily Summary

Daily Weather History Graph

Daily Weather History Graph

Search for Another Location

Airport:

Trip Planner

Search our weather history database for the weather conditions in past years. The results will help you decide how hot, cold, wet, or windy it might be!

Date:

Astronomy

Aug. 04, 2013 Rise Set
Actual Time 5:51 AM CDT 8:14 PM CDT
Civil Twilight 5:19 AM CDT 8:46 PM CDT
Nautical Twilight 4:39 AM CDT 9:26 PM CDT
Astronomical Twilight 3:55 AM CDT 10:10 PM CDT
Moon 3:51 AM CDT (8/4) 6:37 PM CDT (8/4)
Length of Visible Light 15h 27m
Length of Day
14h 23m
Waning Crescent, 4% of the Moon is Illuminated
Aug 4
Waning Crescent
Aug 6
New
Aug 14
First Quarter
Aug 20
Full
Aug 28
Last Quarter

Hourly Weather History & Observations

Time (CDT) Temp. Dew Point Humidity Pressure Visibility Wind Dir Wind Speed Gust Speed Precip Events Conditions
12:53 AM 55.9 °F 52.0 °F 87% 30.15 in 10.0 mi Calm Calm - N/A   Clear
1:53 AM 54.0 °F 52.0 °F 93% 30.17 in 10.0 mi Calm Calm - N/A   Clear
2:53 AM 55.0 °F 51.1 °F 86% 30.18 in 10.0 mi Calm Calm - N/A   Clear
3:53 AM 53.1 °F 50.0 °F 89% 30.19 in 10.0 mi Calm Calm - N/A   Clear
4:53 AM 52.0 °F 50.0 °F 93% 30.17 in 10.0 mi NNW 3.5 mph - N/A   Clear
5:53 AM 52.0 °F 50.0 °F 93% 30.19 in 10.0 mi NW 3.5 mph - N/A   Clear
6:53 AM 55.0 °F 52.0 °F 89% 30.20 in 10.0 mi Calm Calm - N/A   Clear
7:53 AM 59.0 °F 55.0 °F 87% 30.22 in 10.0 mi North 3.5 mph - N/A   Clear
8:53 AM 64.9 °F 57.9 °F 78% 30.23 in 10.0 mi Calm Calm - N/A   Partly Cloudy
9:53 AM 68.0 °F 57.0 °F 68% 30.23 in 10.0 mi SE 5.8 mph - N/A   Scattered Clouds
10:53 AM 71.1 °F 54.0 °F 55% 30.22 in 10.0 mi Calm Calm - N/A   Scattered Clouds
11:53 AM 73.9 °F 55.0 °F 52% 30.22 in 10.0 mi NNE 4.6 mph - N/A   Mostly Cloudy
12:53 PM 75.0 °F 55.9 °F 51% 30.19 in 10.0 mi NNE 6.9 mph - N/A   Mostly Cloudy
1:53 PM 75.0 °F 54.0 °F 48% 30.18 in 10.0 mi Variable 4.6 mph - N/A   Mostly Cloudy
2:53 PM 75.0 °F 53.1 °F 46% 30.17 in 10.0 mi NNE 6.9 mph - N/A   Scattered Clouds
3:53 PM 72.0 °F 55.0 °F 55% 30.17 in 10.0 mi NNW 3.5 mph - N/A   Mostly Cloudy
4:53 PM 73.0 °F 54.0 °F 51% 30.15 in 10.0 mi East 3.5 mph - N/A   Partly Cloudy
5:53 PM 73.0 °F 52.0 °F 48% 30.15 in 10.0 mi Calm Calm - N/A   Partly Cloudy
6:53 PM 71.1 °F 54.0 °F 55% 30.13 in 10.0 mi East 3.5 mph - N/A   Mostly Cloudy
7:53 PM 69.1 °F 53.1 °F 57% 30.11 in 10.0 mi ESE 4.6 mph - N/A   Partly Cloudy
8:53 PM 64.9 °F 55.0 °F 70% 30.11 in 10.0 mi Calm Calm - N/A   Partly Cloudy
9:53 PM 64.9 °F 57.0 °F 75% 30.11 in 10.0 mi SE 8.1 mph - N/A   Scattered Clouds
10:53 PM 66.0 °F 57.9 °F 75% 30.12 in 10.0 mi South 9.2 mph - N/A   Mostly Cloudy
11:53 PM 64.9 °F 57.0 °F 75% 30.11 in 10.0 mi SSE 12.7 mph - N/A   Overcast